When you browse on this site, cookies collect data to enhance your experience and personalize the content and advertising you see.
Visit our Privacy Policy to learn more. By continuing to use the site, you agree to this use of cookies and data.
  • In Deutschland
  • Länderverzeichnis
  • Für 7 Tage
  • Wassertemperatur
  • Wetterkarte
  • Widgets
  • user-avatar
    Anmelden

    Stündliche Wetter Berlin

    Heute, 28 Februar, Freitag

    Zeit Temperatur Niederschläge Wind Luftdruck Luftfeuchtigkeit
    00:00 +3°C° 0 mm 1 m/S 748 mmHg 81%
    01:00 +3°C° 0 mm 1 m/S 749 mmHg 80%
    02:00 +2°C° 0 mm 2 m/S 749 mmHg 81%
    03:00 +2°C° 0 mm 2 m/S 750 mmHg 82%
    04:00 0°C° 0 mm 3 m/S 750 mmHg 83%
    05:00 0°C° 0 mm 3 m/S 751 mmHg 87%
    06:00 -1°C° 0 mm 4 m/S 752 mmHg 90%
    07:00 0°C° 0 mm 3 m/S 753 mmHg 93%
    08:00 0°C° 0 mm 4 m/S 754 mmHg 88%
    09:00 +1°C° 0 mm 5 m/S 754 mmHg 83%
    10:00 +2°C° 0 mm 5 m/S 755 mmHg 78%
    11:00 +3°C° 0.1 mm 6 m/S 755 mmHg 74%
    12:00 +3°C° 0.1 mm 6 m/S 756 mmHg 71%
    13:00 +4°C° 0.1 mm 6 m/S 756 mmHg 68%
    14:00 +4°C° 0 mm 6 m/S 756 mmHg 66%
    15:00 +6°C° 0 mm 5 m/S 756 mmHg 64%
    16:00 +6°C° 0 mm 5 m/S 757 mmHg 62%
    17:00 +5°C° 0 mm 4 m/S 756 mmHg 67%
    18:00 +4°C° 0 mm 4 m/S 756 mmHg 71%
    19:00 +3°C° 0 mm 3 m/S 756 mmHg 76%
    20:00 +2°C° 0 mm 3 m/S 756 mmHg 78%
    21:00 +2°C° 0 mm 3 m/S 756 mmHg 80%
    22:00 +2°C° 0 mm 3 m/S 756 mmHg 82%
    23:00 +2°C° 0 mm 3 m/S 755 mmHg 81%

    Morgen, 29 Februar, Samstag

    Zeit Temperatur Niederschläge Wind Luftdruck Luftfeuchtigkeit
    00:00 +1°C° 0 mm 4 m/S 755 mmHg 79%
    01:00 +1°C° 0 mm 4 m/S 754 mmHg 78%
    02:00 +1°C° 0.1 mm 5 m/S 753 mmHg 80%
    03:00 +1°C° 0.1 mm 5 m/S 752 mmHg 82%
    04:00 0°C° 0.1 mm 5 m/S 751 mmHg 84%
    05:00 +1°C° 0.9 mm 5 m/S 750 mmHg 87%
    06:00 +1°C° 0.9 mm 5 m/S 749 mmHg 90%
    07:00 +1°C° 0.9 mm 5 m/S 749 mmHg 93%
    08:00 +2°C° 0.4 mm 5 m/S 748 mmHg 91%
    09:00 +2°C° 0.4 mm 5 m/S 747 mmHg 90%
    10:00 +3°C° 0.4 mm 5 m/S 746 mmHg 88%
    11:00 +5°C° 0 mm 6 m/S 746 mmHg 84%
    12:00 +7°C° 0 mm 6 m/S 745 mmHg 81%
    13:00 +8°C° 0 mm 6 m/S 745 mmHg 78%
    14:00 +9°C° 0 mm 6 m/S 744 mmHg 77%
    15:00 +9°C° 0 mm 6 m/S 743 mmHg 77%
    16:00 +10°C° 0 mm 6 m/S 743 mmHg 76%
    17:00 +9°C° 0.2 mm 6 m/S 742 mmHg 77%
    18:00 +9°C° 0.2 mm 6 m/S 742 mmHg 78%
    19:00 +8°C° 0.2 mm 7 m/S 742 mmHg 79%
    20:00 +8°C° 0.3 mm 6 m/S 742 mmHg 79%
    21:00 +7°C° 0.3 mm 6 m/S 743 mmHg 79%
    22:00 +7°C° 0.3 mm 5 m/S 743 mmHg 79%
    23:00 +6°C° 0 mm 5 m/S 744 mmHg 78%

    übermorgen, 1 März, Sonntag

    Zeit Temperatur Niederschläge Wind Luftdruck Luftfeuchtigkeit
    00:00 +5°C° 0 mm 4 m/S 744 mmHg 76%
    01:00 +5°C° 0 mm 4 m/S 745 mmHg 75%
    02:00 +4°C° 0 mm 4 m/S 745 mmHg 76%
    03:00 +4°C° 0 mm 4 m/S 745 mmHg 78%
    04:00 +3°C° 0 mm 4 m/S 745 mmHg 79%
    05:00 +3°C° 0 mm 4 m/S 745 mmHg 80%
    06:00 +3°C° 0 mm 4 m/S 745 mmHg 81%
    07:00 +3°C° 0 mm 4 m/S 745 mmHg 81%
    08:00 +3°C° 0 mm 5 m/S 745 mmHg 76%
    09:00 +4°C° 0 mm 6 m/S 745 mmHg 72%
    10:00 +5°C° 0 mm 7 m/S 745 mmHg 67%
    11:00 +6°C° 0.2 mm 7 m/S 745 mmHg 63%
    12:00 +6°C° 0.2 mm 7 m/S 745 mmHg 60%
    13:00 +8°C° 0.2 mm 7 m/S 745 mmHg 57%
    14:00 +8°C° 0 mm 7 m/S 745 mmHg 56%
    15:00 +8°C° 0 mm 6 m/S 745 mmHg 56%
    16:00 +8°C° 0 mm 5 m/S 744 mmHg 55%
    17:00 +7°C° 0 mm 4 m/S 745 mmHg 60%
    18:00 +5°C° 0 mm 4 m/S 745 mmHg 65%
    19:00 +4°C° 0 mm 3 m/S 745 mmHg 70%
    20:00 +4°C° 0 mm 3 m/S 745 mmHg 72%
    21:00 +4°C° 0 mm 4 m/S 745 mmHg 74%
    22:00 +3°C° 0 mm 4 m/S 744 mmHg 76%
    23:00 +3°C° 0 mm 4 m/S 744 mmHg 79%

    2 März, Montag

    Zeit Temperatur Niederschläge Wind Luftdruck Luftfeuchtigkeit
    00:00 +3°C° 0 mm 4 m/S 744 mmHg 82%
    01:00 +3°C° 0 mm 4 m/S 744 mmHg 85%
    02:00 +3°C° 0 mm 4 m/S 743 mmHg 86%
    03:00 +3°C° 0 mm 4 m/S 742 mmHg 86%
    04:00 +3°C° 0 mm 4 m/S 742 mmHg 86%
    05:00 +3°C° 0 mm 4 m/S 741 mmHg 83%
    06:00 +3°C° 0 mm 5 m/S 741 mmHg 80%
    07:00 +3°C° 0 mm 5 m/S 741 mmHg 78%
    08:00 +5°C° 0 mm 5 m/S 741 mmHg 78%
    09:00 +5°C° 0 mm 5 m/S 741 mmHg 79%
    10:00 +5°C° 0 mm 6 m/S 741 mmHg 80%
    11:00 +6°C° 0 mm 5 m/S 741 mmHg 74%
    12:00 +7°C° 0 mm 5 m/S 741 mmHg 69%
    13:00 +7°C° 0 mm 4 m/S 741 mmHg 64%
    14:00 +8°C° 0 mm 4 m/S 741 mmHg 62%
    15:00 +8°C° 0 mm 4 m/S 741 mmHg 60%
    16:00 +9°C° 0 mm 3 m/S 741 mmHg 58%
    17:00 +9°C° 0.2 mm 3 m/S 741 mmHg 65%
    18:00 +8°C° 0.2 mm 3 m/S 741 mmHg 72%
    19:00 +7°C° 0.2 mm 3 m/S 742 mmHg 78%
    20:00 +5°C° 0 mm 4 m/S 742 mmHg 80%
    21:00 +4°C° 0 mm 4 m/S 743 mmHg 81%
    22:00 +2°C° 0 mm 5 m/S 743 mmHg 82%
    23:00 +2°C° 0 mm 5 m/S 744 mmHg 81%

    3 März, Dienstag

    Zeit Temperatur Niederschläge Wind Luftdruck Luftfeuchtigkeit
    00:00 +2°C° 0 mm 5 m/S 744 mmHg 80%
    01:00 +2°C° 0 mm 6 m/S 745 mmHg 79%
    02:00 +2°C° 0 mm 5 m/S 746 mmHg 82%
    03:00 +1°C° 0 mm 4 m/S 746 mmHg 85%
    04:00 +1°C° 0 mm 4 m/S 747 mmHg 87%
    05:00 +1°C° 0 mm 3 m/S 747 mmHg 89%
    06:00 +1°C° 0 mm 3 m/S 748 mmHg 91%
    07:00 +1°C° 0 mm 2 m/S 749 mmHg 93%
    08:00 +3°C° 0 mm 2 m/S 749 mmHg 85%
    09:00 +4°C° 0 mm 2 m/S 750 mmHg 78%
    10:00 +5°C° 0 mm 2 m/S 750 mmHg 71%
    11:00 +6°C° 0 mm 2 m/S 751 mmHg 65%
    12:00 +7°C° 0 mm 2 m/S 751 mmHg 59%
    13:00 +8°C° 0 mm 2 m/S 751 mmHg 53%
    14:00 +8°C° 0 mm 2 m/S 751 mmHg 54%
    15:00 +8°C° 0 mm 2 m/S 751 mmHg 54%
    16:00 +8°C° 0 mm 2 m/S 751 mmHg 55%
    17:00 +8°C° 0 mm 1 m/S 752 mmHg 61%
    18:00 +7°C° 0 mm 1 m/S 752 mmHg 66%
    19:00 +6°C° 0 mm 1 m/S 752 mmHg 72%
    20:00 +4°C° 0 mm 0 m/S 753 mmHg 73%
    21:00 +4°C° 0 mm 0 m/S 753 mmHg 75%
    22:00 +3°C° 0 mm 0 m/S 753 mmHg 77%
    23:00 +3°C° 0 mm 0 m/S 753 mmHg 78%

    4 März, Mittwoch

    Zeit Temperatur Niederschläge Wind Luftdruck Luftfeuchtigkeit
    00:00 +3°C° 0 mm 0 m/S 753 mmHg 79%
    01:00 +2°C° 0 mm 0 m/S 753 mmHg 80%
    02:00 +2°C° 0 mm 0 m/S 753 mmHg 81%
    03:00 +2°C° 0 mm 0 m/S 753 mmHg 81%
    04:00 +3°C° 0 mm 1 m/S 753 mmHg 82%
    05:00 +1°C° 0 mm 0 m/S 754 mmHg 82%
    06:00 +1°C° 0 mm 0 m/S 754 mmHg 83%
    07:00 +1°C° 0 mm 0 m/S 754 mmHg 83%
    08:00 +3°C° 0 mm 0 m/S 754 mmHg 77%
    09:00 +4°C° 0 mm 0 m/S 754 mmHg 70%
    10:00 +6°C° 0 mm 0 m/S 754 mmHg 64%
    11:00 +7°C° 0.1 mm 0 m/S 753 mmHg 61%
    12:00 +8°C° 0.1 mm 0 m/S 753 mmHg 57%
    13:00 +10°C° 0.1 mm 1 m/S 753 mmHg 54%
    14:00 +9°C° 0.1 mm 0 m/S 752 mmHg 53%
    15:00 +9°C° 0.1 mm 0 m/S 752 mmHg 53%
    16:00 +8°C° 0.1 mm 0 m/S 751 mmHg 52%
    17:00 +8°C° 0.1 mm 1 m/S 751 mmHg 58%
    18:00 +7°C° 0.1 mm 1 m/S 751 mmHg 64%
    19:00 +6°C° 0.1 mm 1 m/S 751 mmHg 69%
    20:00 +6°C° 0 mm 1 m/S 751 mmHg 71%
    21:00 +5°C° 0 mm 1 m/S 751 mmHg 74%
    22:00 +5°C° 0 mm 1 m/S 751 mmHg 76%
    23:00 +4°C° 0 mm 1 m/S 750 mmHg 77%
    Mehr zeigen